Hourly Data Report for October 07, 2013

All times are specified in Local Standard Time (LST). Add 1 hour to adjust for Daylight Saving Time where and when it is observed.

PANGNIRTUNG
NUNAVUT

66°08'36.300" N
65°42'40.500" W
22.60 m
2403049
71826
WXP

Download Data

Hourly Data (October 2013)
Hourly Data Report for October 7, 2013
Temp Definition
°C
Dew Point Temp Definition
°C
Rel Hum Definition
%
Wind Dir Definition
10's deg

Wind Spd Definition
km/h
Visibility Definition
km
Stn Press Definition
kPa
Hmdx Definition


Wind Chill Definition


Weather Definition


TIME
00:00 -5.1 -7.7 82 21 4   101.66   -7 LegendNANA
01:00 -4.8 -8.0 78 19 9   101.68   -9 LegendNANA
02:00 -4.0 -7.3 78 20 6   101.69   -7 LegendNANA
03:00 -4.1 -7.3 78 10 7   101.69   -7 LegendNANA
04:00 -4.1 -7.4 78 15 6   101.67   -7 LegendNANA
05:00 -4.6 -7.6 80 15 13   101.65   -10 LegendNANA
06:00 -5.6 -8.5 80 14 15   101.65   -11 LegendNANA
07:00 -5.7 -8.6 80 10 2   101.65   -7 LegendNANA
08:00 -5.8 -8.4 82 13 6   101.63   -9 LegendNANA
09:00 -4.9 -9.2 72 7 6   101.59   -8 LegendNANA
10:00 -4.2 -9.5 67 5 6   101.55   -7 LegendNANA
11:00 -3.7 -10.0 62 36 6   101.54   -6 LegendNANA
12:00 -3.1 -9.7 60 2 11   101.54   -7 LegendNANA
13:00 -2.8 -10.0 58 3 11   101.46   -7 LegendNANA
14:00 -2.5 -10.1 56 3 7   101.39   -5 LegendNANA
15:00 -2.7 -9.9 58 9 13   101.36   -7 LegendNANA
16:00 -3.4 -10.1 60 8 11   101.38   -8 LegendNANA
17:00 -2.8 -10.4 56 6 6   101.25   -5 LegendNANA
18:00 -3.0 -10.4 57 6 11   101.21   -7 LegendNANA
19:00 -3.1 -11.2 54 9 15   101.19   -8 LegendNANA
20:00 -3.4 -11.4 54 7 15   101.07   -9 LegendNANA
21:00 -2.8 -11.3 52 10 24   101.05   -9 LegendNANA
22:00 -2.2 -11.2 50 10 19   100.96   -8 LegendNANA
23:00 -2.6 -11.1 52 7 13   100.89   -7 LegendNANA

Notes on Data Quality.

Legend

  • E = Estimated
  • M = Missing
  • NA = Not Available
  • ‡ = Partner data that is not subject to review by the National Climate Archives
Date modified: